User: anonymous   Login
Location: Arbon
(43.0005°N, 0.7472°E)
Time: 14:48:47
(UTC+00:00)
Language:

Cosmos 2237 Rocket - Orbit

View from above orbital plane
View from above orbital plane
View from above satellite
View from above satellite

Ground track
Ground track

The orbit data is extracted from the following two-line orbital elements,

1 22566U 93016B   20296.22336376 -.00000144  00000-0 -49618-4 0  9994
2 22566  71.0094  19.6482 0008155  68.1319 292.0671 14.14963044424273
Epoch (UTC): 22 October 2020 05:21:38
Eccentricity: 0.0008155
inclination: 71.0094°
perigee height: 836 km
apogee height: 848 km
right ascension of ascending node: 19.6482°
argument of perigee: 68.1319°
revolutions per day: 14.14963044
mean anomaly at epoch: 292.0671°
orbit number at epoch: 42427

The dashed part of the orbit path shows where the satellite is in the earth's shadow,  

DLR